COSMOS 2398

Satellite information

Favourite Embed

Satellite Type and Status

PAYLOADIN ORBIT

Key statistics

Satellite COSMOS 2398 at a glance.

Uptime

8012

Days in orbit

Revolutions

≈ 13.7

Per day

Orbit

LEO

Low Earth Orbit

Inclination

82.9

Latest

Satellite identification and parameters

Extended collection of information and parameters for COSMOS 2398.

Object identification

Identified? True

Debris? False

Object name: COSMOS 2398

International designator: 2003-023A

Object number (NORAD): 27818

Object ID (CCSDS): 27818

Country: COMMONWEALTH OF INDEPENDENT STATES (CIS)

Current information (Y/N): Y

RCS size: LARGE

Orbital parameters

Period: 104.928 minutes

Inclination: 82.9485 deg

SMA: 7369.235 km

Apoapsis: 1014.181 km

Periapsis: 968.019 km

RAAN: 71.9611 deg

Eccentricy: 0.0031321

Argument of periapsis: 355.852 deg

Mean anomaly: 178.0767 deg

Mean motion: 13.72363426 rev/day

Mean motion (dot): 0.00000061 rev/day2

B* drag term: 0.000050304 1/REarth

Two-line elements (TLE)

Creation date: May 10, 2025, 5:27 p.m.

Reference frame: TEME

Reference center: EARTH

Epoch: May 10, 2025, 3:10 p.m. UTC

TLE line 0: 0 COSMOS 2398

TLE line 1: 1 27818U 03023A 25130.63213652 .00000061 00000-0 50304-4 0 9996

TLE line 2: 2 27818 82.9485 71.9611 0031321 355.8520 178.0767 13.72363426 98524

Live tracking on map

Real-time ground track for satellite COSMOS 2398.

In-orbit conjunctions

There are no conjunctions computed for COSMOS 2398, at the moment. Check back to stay up to date, as we update our databases every day.

Go to all conjunctions

Associated space launch

Navigation satellite providing location information for the Tsiklon-B navigation system

COSMOS 2398 was lifted into orbit during the mission ‘Kosmos-3M | Parus 94’, on board a Kosmos-3M space rocket.

The launch took place on June 4, 2003, 7:23 p.m. from 132/1 (132L).

For more information about the launch, click the button.

Launch to space Kosmos-3M | Parus 94
Kosmos-3M | Parus 94

Agency: N/A

Status: Launch Successful

Launch date: June 4, 2003, 7:23 p.m. UTC

Rocket: Kosmos-3M

Launch pad: 132/1 (132L)

Location: Plesetsk Cosmodrome, Russian Federation

...

Latest news about this satellite

There are no fresh news available about this satellite. Check back as we update our databases every day.


Newsletter sign-up

Weekly statistics, charts and insights to help you stay on top of the space industry.